,,,PA_Meas_PMT16A,,PR_Meas_QMR101_102,,RH_Meas_QMH101,,SR_Meas_QMS101,,TA_Meas_QMH101,,GenWind,,GenWind,
date,time,status,PA,status,PR,status,RH,status,SR,status,TA,status,DirAvg,status,SpdAvg,
2012-02-26, 00:00:05,VALID,997.965,VALID,0,VALID,89.0834,VALID,0,VALID,25.0265,VALID,115,VALID,0.300391,
2012-02-26, 00:01:05,VALID,997.939,VALID,0,VALID,89.2437,VALID,0,VALID,25.0655,VALID,45,VALID,1.42344,
2012-02-26, 00:02:05,VALID,997.893,VALID,0,VALID,89.2055,VALID,0,VALID,25.1064,VALID,46,VALID,0.435156,
2012-02-26, 00:03:05,VALID,997.885,VALID,0,VALID,88.9537,VALID,0,VALID,25.126,VALID,46,VALID,0.00117188,
2012-02-26, 00:04:05,VALID,997.822,VALID,0,VALID,88.7935,VALID,0,VALID,25.165,VALID,46,VALID,0.0855469,
2012-02-26, 00:05:05,VALID,997.767,VALID,0,VALID,88.6409,VALID,0,VALID,25.1631,VALID,46,VALID,0,
2012-02-26, 00:06:05,VALID,997.734,VALID,0,VALID,88.6409,VALID,0,VALID,25.204,VALID,46,VALID,0,
2012-02-26, 00:07:05,VALID,997.698,VALID,0,VALID,88.5417,VALID,0,VALID,25.204,VALID,46,VALID,0,
2012-02-26, 00:08:05,VALID,997.708,VALID,0,VALID,88.4654,VALID,0,VALID,25.2236,VALID,46,VALID,0,
2012-02-26, 00:09:05,VALID,997.718,VALID,0,VALID,88.3434,VALID,0,VALID,25.2431,VALID,46,VALID,0,
2012-02-26, 00:10:05,VALID,997.694,VALID,0,VALID,88.2442,VALID,0,VALID,25.2626,VALID,46,VALID,0,
2012-02-26, 00:11:05,VALID,997.683,VALID,0,VALID,88.2213,VALID,0,VALID,25.2626,VALID,46,VALID,0,
2012-02-26, 00:12:05,VALID,997.648,VALID,0,VALID,88.1832,VALID,0,VALID,25.2412,VALID,46,VALID,0.650391,
2012-02-26, 00:13:05,VALID,997.652,VALID,0,VALID,88.3357,VALID,0,VALID,25.2821,VALID,229,VALID,0.722656,
2012-02-26, 00:14:05,VALID,997.632,VALID,0,VALID,88.3129,VALID,0,VALID,25.3017,VALID,229,VALID,0.379297,
2012-02-26, 00:15:05,VALID,997.609,VALID,0,VALID,88.3434,VALID,0,VALID,25.3017,VALID,254,VALID,0.703125,
2012-02-26, 00:16:05,VALID,997.61,VALID,0,VALID,88.3281,VALID,0,VALID,25.3017,VALID,302,VALID,0.621875,
2012-02-26, 00:17:05,VALID,997.582,VALID,0,VALID,88.2747,VALID,0,VALID,25.2997,VALID,302,VALID,0.835547,
2012-02-26, 00:18:05,VALID,997.585,VALID,0,VALID,88.1603,VALID,0,VALID,25.3212,VALID,280,VALID,1.11875,
2012-02-26, 00:19:05,VALID,997.587,VALID,0,VALID,88,VALID,0,VALID,25.3407,VALID,278,VALID,0.95625,
2012-02-26, 00:20:05,VALID,997.617,VALID,0,VALID,87.9924,VALID,0,VALID,25.3407,VALID,278,VALID,0.971484,
2012-02-26, 00:21:05,VALID,997.587,VALID,0,VALID,87.9848,VALID,0,VALID,25.3407,VALID,272,VALID,0.628516,
2012-02-26, 00:22:05,VALID,997.612,VALID,0,VALID,88.0153,VALID,0,VALID,25.3407,VALID,263,VALID,0.835156,
2012-02-26, 00:23:05,VALID,997.552,VALID,0,VALID,88.0534,VALID,0,VALID,25.2802,VALID,263,VALID,0.548437,
2012-02-26, 00:24:05,VALID,997.571,VALID,0,VALID,88.145,VALID,0,VALID,25.3017,VALID,263,VALID,0.359375,
2012-02-26, 00:25:05,VALID,997.552,VALID,0,VALID,88.1832,VALID,0,VALID,25.2626,VALID,263,VALID,0.204688,
2012-02-26, 00:26:05,VALID,997.544,VALID,0,VALID,88.0611,VALID,0,VALID,25.2626,VALID,218,VALID,0.641797,
2012-02-26, 00:27:05,VALID,997.548,VALID,0,VALID,88.2747,VALID,0,VALID,25.2021,VALID,123,VALID,0.434766,
2012-02-26, 00:28:05,VALID,997.532,VALID,0,VALID,88.3968,VALID,0,VALID,25.1845,VALID,123,VALID,0.0191406,
2012-02-26, 00:29:05,VALID,997.516,VALID,0,VALID,88.4502,VALID,0,VALID,25.165,VALID,123,VALID,0,
2012-02-26, 00:30:05,VALID,997.506,VALID,0,VALID,88.5646,VALID,0,VALID,25.1455,VALID,123,VALID,0.221094,
2012-02-26, 00:31:05,VALID,997.513,VALID,0,VALID,88.702,VALID,0,VALID,25.1455,VALID,123,VALID,0.0710938,
2012-02-26, 00:32:05,VALID,997.511,VALID,0,VALID,88.6104,VALID,0,VALID,25.126,VALID,123,VALID,0,
2012-02-26, 00:33:05,VALID,997.464,VALID,0,VALID,88.7172,VALID,0,VALID,25.1455,VALID,123,VALID,0.003125,
2012-02-26, 00:34:05,VALID,997.48,VALID,0,VALID,88.7935,VALID,0,VALID,25.126,VALID,158,VALID,0.255078,
2012-02-26, 00:35:05,VALID,997.473,VALID,0,VALID,88.8698,VALID,0,VALID,25.1455,VALID,236,VALID,0.420703,
2012-02-26, 00:36:05,VALID,997.454,VALID,0,VALID,88.8927,VALID,0,VALID,25.1241,VALID,236,VALID,0.312891,
2012-02-26, 00:37:05,VALID,997.458,VALID,0,VALID,88.8469,VALID,0,VALID,25.126,VALID,236,VALID,0.0644531,
2012-02-26, 00:38:05,VALID,997.534,VALID,0,VALID,88.7706,VALID,0,VALID,25.0869,VALID,236,VALID,0,
2012-02-26, 00:39:05,VALID,997.505,VALID,0,VALID,88.6409,VALID,0,VALID,25.0655,VALID,236,VALID,0.122266,
2012-02-26, 00:40:05,VALID,997.516,VALID,0,VALID,88.6562,VALID,0,VALID,25.0069,VALID,236,VALID,0.015625,
2012-02-26, 00:41:05,VALID,997.486,VALID,0,VALID,88.9385,VALID,0,VALID,24.9484,VALID,236,VALID,0.386328,
2012-02-26, 00:42:05,VALID,997.535,VALID,0,VALID,89.3886,VALID,0,VALID,24.9289,VALID,236,VALID,0.604297,
2012-02-26, 00:43:05,VALID,997.552,VALID,0,VALID,89.526,VALID,0,VALID,24.9308,VALID,105,VALID,0.745703,
2012-02-26, 00:44:05,VALID,997.522,VALID,0,VALID,89.4802,VALID,0,VALID,24.9093,VALID,105,VALID,0.432031,
2012-02-26, 00:45:05,VALID,997.524,VALID,0,VALID,89.4573,VALID,0,VALID,24.9093,VALID,105,VALID,0.317578,
2012-02-26, 00:46:05,VALID,997.519,VALID,0,VALID,89.4649,VALID,0,VALID,24.9093,VALID,105,VALID,0,
2012-02-26, 00:47:05,VALID,997.523,VALID,0,VALID,89.2742,VALID,0,VALID,24.9289,VALID,105,VALID,0,
2012-02-26, 00:48:05,VALID,997.509,VALID,0,VALID,89.1368,VALID,0,VALID,24.9308,VALID,106,VALID,0,
2012-02-26, 00:49:05,VALID,997.514,VALID,0,VALID,89.03,VALID,0,VALID,24.8898,VALID,105,VALID,0,
2012-02-26, 00:50:05,VALID,997.508,VALID,0,VALID,88.9766,VALID,0,VALID,24.8703,VALID,106,VALID,0,
2012-02-26, 00:51:05,VALID,997.492,VALID,0,VALID,89.0606,VALID,0,VALID,24.8508,VALID,106,VALID,0.0394531,
2012-02-26, 00:52:05,VALID,997.455,VALID,0,VALID,89.1368,VALID,0,VALID,24.8313,VALID,106,VALID,0,
2012-02-26, 00:53:05,VALID,997.393,VALID,0,VALID,89.4344,VALID,0,VALID,24.8527,VALID,106,VALID,0,
2012-02-26, 00:54:05,VALID,997.386,VALID,0,VALID,89.5489,VALID,0,VALID,24.8313,VALID,106,VALID,0.153516,
2012-02-26, 00:55:05,VALID,997.401,VALID,0,VALID,89.6328,VALID,0,VALID,24.8722,VALID,106,VALID,0,
2012-02-26, 00:56:05,VALID,997.371,VALID,0,VALID,89.6099,VALID,0,VALID,24.8917,VALID,106,VALID,0,
2012-02-26, 00:57:05,VALID,997.376,VALID,0,VALID,89.3886,VALID,0,VALID,24.8722,VALID,105,VALID,0,
2012-02-26, 00:58:05,VALID,997.342,VALID,0,VALID,89.3505,VALID,0,VALID,24.8527,VALID,105,VALID,0,
2012-02-26, 00:59:05,VALID,997.369,VALID,0,VALID,89.6786,VALID,0,VALID,24.8117,VALID,105,VALID,0,
2012-02-26, 01:00:05,VALID,997.408,VALID,0,VALID,89.8464,VALID,0,VALID,24.7922,VALID,105,VALID,0,
2012-02-26, 01:01:05,VALID,997.464,VALID,0,VALID,89.9303,VALID,0,VALID,24.7727,VALID,105,VALID,0,
2012-02-26, 01:02:05,VALID,997.476,VALID,0,VALID,89.9685,VALID,0,VALID,24.7941,VALID,105,VALID,0,
2012-02-26, 01:03:05,VALID,997.506,VALID,0,VALID,89.8311,VALID,0,VALID,24.7551,VALID,105,VALID,0,
2012-02-26, 01:04:05,VALID,997.507,VALID,0,VALID,89.9685,VALID,0,VALID,24.7551,VALID,105,VALID,0,
2012-02-26, 01:05:05,VALID,997.496,VALID,0,VALID,90.0906,VALID,0,VALID,24.7356,VALID,105,VALID,0,
2012-02-26, 01:06:05,VALID,997.477,VALID,0,VALID,90.3271,VALID,0,VALID,24.7356,VALID,105,VALID,0,
2012-02-26, 01:07:05,VALID,997.449,VALID,0,VALID,90.3805,VALID,0,VALID,24.7142,VALID,105,VALID,0,
2012-02-26, 01:08:05,VALID,997.43,VALID,0,VALID,90.2431,VALID,0,VALID,24.7142,VALID,105,VALID,0,
2012-02-26, 01:09:05,VALID,997.41,VALID,0,VALID,90.1821,VALID,0,VALID,24.716,VALID,105,VALID,0.187109,
2012-02-26, 01:10:05,VALID,997.371,VALID,0,VALID,90.1211,VALID,0,VALID,24.716,VALID,105,VALID,0,
2012-02-26, 01:11:05,VALID,997.359,VALID,0,VALID,90.144,VALID,0,VALID,24.6751,VALID,105,VALID,0,
2012-02-26, 01:12:05,VALID,997.329,VALID,0,VALID,90.205,VALID,0,VALID,24.6965,VALID,105,VALID,0,
2012-02-26, 01:13:05,VALID,997.24,VALID,0,VALID,90.1897,VALID,0,VALID,24.677,VALID,105,VALID,0.409766,
2012-02-26, 01:14:05,VALID,997.239,VALID,0,VALID,90.3347,VALID,0,VALID,24.6575,VALID,105,VALID,0.488672,
2012-02-26, 01:15:05,VALID,997.202,VALID,0,VALID,90.6246,VALID,0,VALID,24.6361,VALID,102,VALID,0.677344,
2012-02-26, 01:16:05,VALID,997.171,VALID,0,VALID,90.823,VALID,0,VALID,24.6361,VALID,65,VALID,0.892187,
2012-02-26, 01:17:05,VALID,997.14,VALID,0,VALID,90.9527,VALID,0,VALID,24.6575,VALID,54,VALID,1.1582,
2012-02-26, 01:18:05,VALID,997.156,VALID,0,VALID,90.8688,VALID,0,VALID,24.6556,VALID,54,VALID,1.02813,
2012-02-26, 01:19:05,VALID,997.112,VALID,0,VALID,90.7391,VALID,0,VALID,24.677,VALID,54,VALID,0.771875,
2012-02-26, 01:20:05,VALID,997.073,VALID,0,VALID,90.5483,VALID,0,VALID,24.6361,VALID,54,VALID,0.817187,
2012-02-26, 01:21:05,VALID,997.037,VALID,0,VALID,90.4186,VALID,0,VALID,24.6575,VALID,81,VALID,0.850391,
2012-02-26, 01:22:05,VALID,996.992,VALID,0,VALID,90.2889,VALID,0,VALID,24.638,VALID,81,VALID,0.473828,
2012-02-26, 01:23:05,VALID,996.965,VALID,0,VALID,90.3728,VALID,0,VALID,24.5989,VALID,81,VALID,0.215625,
2012-02-26, 01:24:05,VALID,996.931,VALID,0,VALID,90.4034,VALID,0,VALID,24.5989,VALID,81,VALID,0.170703,
2012-02-26, 01:25:04,VALID,996.886,VALID,0,VALID,90.35,VALID,0,VALID,24.5794,VALID,81,VALID,0.0460938,
2012-02-26, 01:26:04,VALID,996.882,VALID,0,VALID,90.3042,VALID,0,VALID,24.5599,VALID,81,VALID,0.321094,
2012-02-26, 01:27:04,VALID,996.839,VALID,0,VALID,90.4263,VALID,0,VALID,24.5404,VALID,81,VALID,0.375,
2012-02-26, 01:28:04,VALID,996.826,VALID,0,VALID,90.5254,VALID,0,VALID,24.5404,VALID,81,VALID,0.267969,
2012-02-26, 01:29:04,VALID,996.805,VALID,0,VALID,90.6323,VALID,0,VALID,24.5209,VALID,81,VALID,0.359375,
2012-02-26, 01:30:04,VALID,996.813,VALID,0,VALID,90.6704,VALID,0,VALID,24.5013,VALID,81,VALID,0.352344,
2012-02-26, 01:31:04,VALID,996.805,VALID,0,VALID,90.6704,VALID,0,VALID,24.5013,VALID,81,VALID,0.314063,
2012-02-26, 01:32:04,VALID,996.797,VALID,0,VALID,90.9069,VALID,0,VALID,24.4818,VALID,81,VALID,0.742188,
2012-02-26, 01:33:04,VALID,996.843,VALID,0,VALID,91.1206,VALID,0,VALID,24.4818,VALID,81,VALID,0.774609,
2012-02-26, 01:34:04,VALID,996.814,VALID,0,VALID,91.1206,VALID,0,VALID,24.4818,VALID,81,VALID,0.551953,
2012-02-26, 01:35:04,VALID,996.807,VALID,0,VALID,90.9909,VALID,0,VALID,24.48,VALID,77,VALID,0.690625,
2012-02-26, 01:36:04,VALID,996.866,VALID,0,VALID,90.9069,VALID,0,VALID,24.4818,VALID,75,VALID,0.668359,
2012-02-26, 01:37:04,VALID,996.806,VALID,0,VALID,90.9069,VALID,0,VALID,24.4623,VALID,76,VALID,0.355859,
2012-02-26, 01:38:04,VALID,996.804,VALID,0,VALID,90.8535,VALID,0,VALID,24.4623,VALID,75,VALID,0.0570313,
2012-02-26, 01:39:04,VALID,996.781,VALID,0,VALID,90.7772,VALID,0,VALID,24.4428,VALID,76,VALID,0,
2012-02-26, 01:40:04,VALID,996.749,VALID,0,VALID,90.7009,VALID,0,VALID,24.4037,VALID,76,VALID,0.218359,
2012-02-26, 01:41:04,VALID,996.738,VALID,0,VALID,90.8154,VALID,0,VALID,24.4233,VALID,145,VALID,0.798437,
2012-02-26, 01:42:04,VALID,996.695,VALID,0,VALID,91.0366,VALID,0,VALID,24.4233,VALID,145,VALID,0.729688,
2012-02-26, 01:43:04,VALID,996.709,VALID,0,VALID,91.2503,VALID,0,VALID,24.4233,VALID,145,VALID,0.833203,
2012-02-26, 01:44:04,VALID,996.677,VALID,0,VALID,91.3342,VALID,0,VALID,24.4214,VALID,145,VALID,0.609375,
2012-02-26, 01:45:04,VALID,996.628,VALID,0,VALID,91.3342,VALID,0,VALID,24.4623,VALID,92,VALID,0.749609,
2012-02-26, 01:46:04,VALID,996.576,VALID,0,VALID,91.3037,VALID,0,VALID,24.4409,VALID,84,VALID,0.570703,
2012-02-26, 01:47:04,VALID,996.543,VALID,0,VALID,91.1816,VALID,0,VALID,24.4818,VALID,84,VALID,0.466016,
2012-02-26, 01:48:04,VALID,996.539,VALID,0,VALID,91.0366,VALID,0,VALID,24.4818,VALID,84,VALID,0.225,
2012-02-26, 01:49:04,VALID,996.537,VALID,0,VALID,90.9374,VALID,0,VALID,24.5013,VALID,84,VALID,0,
2012-02-26, 01:50:04,VALID,996.528,VALID,0,VALID,90.9222,VALID,0,VALID,24.4818,VALID,84,VALID,0,
2012-02-26, 01:51:04,VALID,996.548,VALID,0,VALID,90.9527,VALID,0,VALID,24.4818,VALID,84,VALID,0,
2012-02-26, 01:52:04,VALID,996.511,VALID,0,VALID,90.9603,VALID,0,VALID,24.5013,VALID,84,VALID,0.0683594,
2012-02-26, 01:53:04,VALID,996.517,VALID,0,VALID,90.9756,VALID,0,VALID,24.4818,VALID,123,VALID,0.675391,
2012-02-26, 01:54:04,VALID,996.482,VALID,0,VALID,91.0061,VALID,0,VALID,24.5013,VALID,176,VALID,1.03828,
2012-02-26, 01:55:04,VALID,996.489,VALID,0,VALID,90.9985,VALID,0,VALID,24.5404,VALID,191,VALID,0.902734,
2012-02-26, 01:56:04,VALID,996.4,VALID,0,VALID,91.0214,VALID,0,VALID,24.5599,VALID,185,VALID,0.755469,
2012-02-26, 01:57:04,VALID,996.388,VALID,0,VALID,91.0061,VALID,0,VALID,24.5989,VALID,185,VALID,0.682813,
2012-02-26, 01:58:04,VALID,996.389,VALID,0,VALID,90.8688,VALID,0,VALID,24.5989,VALID,185,VALID,0.557031,
2012-02-26, 01:59:04,VALID,996.351,VALID,0,VALID,90.7009,VALID,0,VALID,24.6184,VALID,185,VALID,0.741797,
2012-02-26, 02:00:04,VALID,996.343,VALID,0,VALID,90.4873,VALID,0,VALID,24.6398,VALID,185,VALID,0.350391,
2012-02-26, 02:01:04,VALID,996.337,VALID,0,VALID,90.3194,VALID,0,VALID,24.6184,VALID,185,VALID,0,
2012-02-26, 02:02:04,VALID,996.313,VALID,0,VALID,90.4263,VALID,0,VALID,24.6184,VALID,294,VALID,0.48125,
2012-02-26, 02:03:04,VALID,996.32,VALID,0,VALID,90.5636,VALID,0,VALID,24.638,VALID,294,VALID,0.591016,
2012-02-26, 02:04:04,VALID,996.316,VALID,0,VALID,90.7238,VALID,0,VALID,24.5989,VALID,294,VALID,0.352344,
2012-02-26, 02:05:04,VALID,996.295,VALID,0,VALID,90.8154,VALID,0,VALID,24.5989,VALID,294,VALID,0,
2012-02-26, 02:06:04,VALID,996.301,VALID,0,VALID,90.8077,VALID,0,VALID,24.5599,VALID,294,VALID,0,
2012-02-26, 02:07:04,VALID,996.287,VALID,0,VALID,90.7391,VALID,0,VALID,24.5404,VALID,294,VALID,0,
2012-02-26, 02:08:04,VALID,996.251,VALID,0,VALID,90.7467,VALID,0,VALID,24.5404,VALID,294,VALID,0,
2012-02-26, 02:09:04,VALID,996.227,VALID,0,VALID,90.7772,VALID,0,VALID,24.4995,VALID,294,VALID,0,
2012-02-26, 02:10:04,VALID,996.263,VALID,0,VALID,90.8077,VALID,0,VALID,24.5209,VALID,294,VALID,0,
2012-02-26, 02:11:04,VALID,996.279,VALID,0,VALID,90.8001,VALID,0,VALID,24.5209,VALID,294,VALID,0,
2012-02-26, 02:12:04,VALID,996.261,VALID,0,VALID,90.762,VALID,0,VALID,24.5209,VALID,294,VALID,0,
2012-02-26, 02:13:04,VALID,996.249,VALID,0,VALID,90.7772,VALID,0,VALID,24.5013,VALID,294,VALID,0.0882813,
2012-02-26, 02:14:04,VALID,996.252,VALID,0,VALID,90.7925,VALID,0,VALID,24.5013,VALID,294,VALID,0,
2012-02-26, 02:15:04,VALID,996.262,VALID,0,VALID,90.7925,VALID,0,VALID,24.5013,VALID,294,VALID,0,
2012-02-26, 02:16:04,VALID,996.259,VALID,0,VALID,90.8154,VALID,0,VALID,24.4818,VALID,287,VALID,0,
2012-02-26, 02:17:04,VALID,996.278,VALID,0,VALID,90.8383,VALID,0,VALID,24.5013,VALID,174,VALID,0,
2012-02-26, 02:18:04,VALID,996.258,VALID,0,VALID,90.7772,VALID,0,VALID,24.5013,VALID,174,VALID,0,
2012-02-26, 02:19:04,VALID,996.217,VALID,0,VALID,90.7391,VALID,0,VALID,24.4818,VALID,174,VALID,0,
2012-02-26, 02:20:04,VALID,996.25,VALID,0,VALID,90.6933,VALID,0,VALID,24.4818,VALID,174,VALID,0,
2012-02-26, 02:21:04,VALID,996.216,VALID,0,VALID,90.5865,VALID,0,VALID,24.4818,VALID,174,VALID,0,
2012-02-26, 02:22:04,VALID,996.231,VALID,0,VALID,90.5941,VALID,0,VALID,24.4623,VALID,174,VALID,0,
2012-02-26, 02:23:04,VALID,996.219,VALID,0,VALID,90.7849,VALID,0,VALID,24.4623,VALID,174,VALID,0,
2012-02-26, 02:24:04,VALID,996.243,VALID,0,VALID,90.8764,VALID,0,VALID,24.4428,VALID,174,VALID,0,
2012-02-26, 02:25:04,VALID,996.226,VALID,0,VALID,90.9298,VALID,0,VALID,24.4428,VALID,174,VALID,0,
2012-02-26, 02:26:04,VALID,996.241,VALID,0,VALID,90.8993,VALID,0,VALID,24.4037,VALID,174,VALID,0.171484,
2012-02-26, 02:27:04,VALID,996.251,VALID,0,VALID,90.9222,VALID,0,VALID,24.3647,VALID,174,VALID,0.467969,
2012-02-26, 02:28:04,VALID,996.229,VALID,0,VALID,91.1663,VALID,0,VALID,24.3257,VALID,174,VALID,0.4,
2012-02-26, 02:29:04,VALID,996.247,VALID,0,VALID,91.4028,VALID,0,VALID,24.3043,VALID,174,VALID,0.448828,
2012-02-26, 02:30:04,VALID,996.217,VALID,0,VALID,91.5173,VALID,0,VALID,24.3257,VALID,248,VALID,0.711719,
2012-02-26, 02:31:04,VALID,996.259,VALID,0,VALID,91.6088,VALID,0,VALID,24.3257,VALID,248,VALID,0.334766,
2012-02-26, 02:32:04,VALID,996.251,VALID,0,VALID,91.6394,VALID,0,VALID,24.3257,VALID,248,VALID,0.253125,
2012-02-26, 02:33:04,VALID,996.267,VALID,0,VALID,91.6317,VALID,0,VALID,24.3257,VALID,248,VALID,0.176953,
2012-02-26, 02:34:04,VALID,996.284,VALID,0,VALID,91.6623,VALID,0,VALID,24.3257,VALID,248,VALID,0.243359,
2012-02-26, 02:35:04,VALID,996.269,VALID,0,VALID,91.3952,VALID,0,VALID,24.3275,VALID,248,VALID,0.524219,
2012-02-26, 02:36:04,VALID,996.279,VALID,0,VALID,91.4181,VALID,0,VALID,24.2866,VALID,248,VALID,0.582031,
2012-02-26, 02:37:04,VALID,996.286,VALID,0,VALID,91.8148,VALID,0,VALID,24.2671,VALID,248,VALID,0.632031,
2012-02-26, 02:38:04,VALID,996.294,VALID,0,VALID,92.0743,VALID,0,VALID,24.2866,VALID,248,VALID,0.510547,
2012-02-26, 02:39:04,VALID,996.3,VALID,0,VALID,91.9293,VALID,0,VALID,24.2476,VALID,248,VALID,0.166797,
2012-02-26, 02:40:04,VALID,996.304,VALID,0,VALID,91.9293,VALID,0,VALID,24.2281,VALID,248,VALID,0.584766,
2012-02-26, 02:41:04,VALID,996.282,VALID,0,VALID,92.2421,VALID,0,VALID,24.2476,VALID,248,VALID,0.594141,
2012-02-26, 02:42:04,VALID,996.277,VALID,0,VALID,92.3947,VALID,0,VALID,24.2476,VALID,248,VALID,0.502344,
2012-02-26, 02:43:04,VALID,996.288,VALID,0,VALID,92.41,VALID,0,VALID,24.2476,VALID,248,VALID,0.435547,
2012-02-26, 02:44:04,VALID,996.249,VALID,0,VALID,92.265,VALID,0,VALID,24.2476,VALID,248,VALID,0.557813,
2012-02-26, 02:45:04,VALID,996.241,VALID,0,VALID,92.2497,VALID,0,VALID,24.2281,VALID,248,VALID,0.337891,
2012-02-26, 02:46:04,VALID,996.171,VALID,0,VALID,92.1506,VALID,0,VALID,24.2086,VALID,248,VALID,0.119922,
2012-02-26, 02:47:04,VALID,996.155,VALID,0,VALID,92.0666,VALID,0,VALID,24.1891,VALID,248,VALID,0,
2012-02-26, 02:48:04,VALID,996.123,VALID,0,VALID,92.0361,VALID,0,VALID,24.1891,VALID,248,VALID,0.197266,
2012-02-26, 02:49:04,VALID,996.091,VALID,0,VALID,92.0666,VALID,0,VALID,24.1891,VALID,248,VALID,0.244531,
2012-02-26, 02:50:04,VALID,996.076,VALID,0,VALID,92.1124,VALID,0,VALID,24.1891,VALID,248,VALID,0.071875,
2012-02-26, 02:51:04,VALID,996.06,VALID,0,VALID,92.1353,VALID,0,VALID,24.1891,VALID,248,VALID,0,
2012-02-26, 02:52:04,VALID,996.083,VALID,0,VALID,92.1658,VALID,0,VALID,24.1891,VALID,248,VALID,0.333594,
2012-02-26, 02:53:04,VALID,996.072,VALID,0,VALID,92.265,VALID,0,VALID,24.1891,VALID,248,VALID,0.662891,
2012-02-26, 02:54:04,VALID,996.095,VALID,0,VALID,92.1277,VALID,0,VALID,24.1677,VALID,248,VALID,0.921484,
2012-02-26, 02:55:04,VALID,996.079,VALID,0,VALID,92.1124,VALID,0,VALID,24.15,VALID,248,VALID,1.02813,
2012-02-26, 02:56:04,VALID,996.086,VALID,0,VALID,91.8454,VALID,0,VALID,24.111,VALID,71,VALID,1.12734,
2012-02-26, 02:57:04,VALID,996.055,VALID,0,VALID,91.8606,VALID,0,VALID,24.0525,VALID,66,VALID,0.538281,
2012-02-26, 02:58:04,VALID,996.055,VALID,0,VALID,91.9064,VALID,0,VALID,24.0134,VALID,66,VALID,0.520312,
2012-02-26, 02:59:04,VALID,996.058,VALID,0,VALID,92.0132,VALID,0,VALID,23.9939,VALID,66,VALID,0.634766,
2012-02-26, 03:00:04,VALID,996.045,VALID,0,VALID,92.0666,VALID,0,VALID,23.9549,VALID,70,VALID,0.714063,
2012-02-26, 03:01:04,VALID,996.018,VALID,0,VALID,92.1811,VALID,0,VALID,23.9549,VALID,91,VALID,0.642969,
2012-02-26, 03:02:04,VALID,996.037,VALID,0,VALID,92.1963,VALID,0,VALID,23.9354,VALID,91,VALID,0.571484,
2012-02-26, 03:03:04,VALID,996.043,VALID,0,VALID,92.2803,VALID,0,VALID,23.9354,VALID,91,VALID,0.714063,
2012-02-26, 03:04:04,VALID,996.046,VALID,0,VALID,92.4176,VALID,0,VALID,23.9549,VALID,75,VALID,0.799609,
2012-02-26, 03:05:04,VALID,996.088,VALID,0,VALID,92.5015,VALID,0,VALID,23.9336,VALID,52,VALID,0.726172,
2012-02-26, 03:06:04,VALID,996.081,VALID,0,VALID,92.5015,VALID,0,VALID,23.9744,VALID,52,VALID,0.520703,
2012-02-26, 03:07:04,VALID,996.086,VALID,0,VALID,92.5397,VALID,0,VALID,23.9531,VALID,52,VALID,0.505859,
2012-02-26, 03:08:04,VALID,996.06,VALID,0,VALID,92.5397,VALID,0,VALID,23.9549,VALID,52,VALID,0.422656,
2012-02-26, 03:09:04,VALID,996.069,VALID,0,VALID,92.4863,VALID,0,VALID,23.9531,VALID,52,VALID,0.183594,
2012-02-26, 03:10:04,VALID,996.061,VALID,0,VALID,92.4481,VALID,0,VALID,23.9336,VALID,52,VALID,0.304297,
2012-02-26, 03:11:04,VALID,996.042,VALID,0,VALID,92.4939,VALID,0,VALID,23.9744,VALID,52,VALID,0.555859,
2012-02-26, 03:12:04,VALID,996.101,VALID,0,VALID,92.6007,VALID,0,VALID,24.0134,VALID,52,VALID,0.437109,
2012-02-26, 03:13:04,VALID,996.094,VALID,0,VALID,92.6617,VALID,0,VALID,24.0134,VALID,52,VALID,0.458203,
2012-02-26, 03:14:04,VALID,996.076,VALID,0,VALID,92.7151,VALID,0,VALID,24.0116,VALID,52,VALID,0.335156,
2012-02-26, 03:15:04,VALID,996.071,VALID,0,VALID,92.7075,VALID,0,VALID,24.0116,VALID,52,VALID,0.409375,
2012-02-26, 03:16:04,VALID,996.068,VALID,0,VALID,92.6923,VALID,0,VALID,24.0329,VALID,52,VALID,0.373047,
2012-02-26, 03:17:04,VALID,996.112,VALID,0,VALID,92.7228,VALID,0,VALID,24.0525,VALID,52,VALID,0.502344,
2012-02-26, 03:18:04,VALID,996.115,VALID,0,VALID,92.7457,VALID,0,VALID,24.0329,VALID,52,VALID,0.439063,
2012-02-26, 03:19:04,VALID,996.122,VALID,0,VALID,92.7304,VALID,0,VALID,24.0525,VALID,52,VALID,0.244141,
2012-02-26, 03:20:04,VALID,996.145,VALID,0,VALID,92.7609,VALID,0,VALID,24.0525,VALID,52,VALID,0.296875,
2012-02-26, 03:21:04,VALID,996.178,VALID,0,VALID,92.7609,VALID,0,VALID,24.0311,VALID,52,VALID,0.798047,
2012-02-26, 03:22:04,VALID,996.142,VALID,0,VALID,92.7838,VALID,0,VALID,24.0525,VALID,52,VALID,0.202344,
2012-02-26, 03:23:04,VALID,996.142,VALID,0,VALID,92.7838,VALID,0,VALID,24.0116,VALID,52,VALID,0,
2012-02-26, 03:24:04,VALID,996.145,VALID,0,VALID,92.738,VALID,0,VALID,24.0116,VALID,52,VALID,0.587891,
2012-02-26, 03:25:04,VALID,996.141,VALID,0,VALID,92.822,VALID,0,VALID,24.0329,VALID,52,VALID,0.441016,
2012-02-26, 03:26:04,VALID,996.137,VALID,0,VALID,92.9059,VALID,0,VALID,24.0311,VALID,52,VALID,0.255078,
2012-02-26, 03:27:04,VALID,996.166,VALID,0,VALID,92.9898,VALID,0,VALID,24.0525,VALID,52,VALID,0.392969,
2012-02-26, 03:28:04,VALID,996.188,VALID,0,VALID,92.9593,VALID,0,VALID,24.0525,VALID,52,VALID,1.04102,
2012-02-26, 03:29:04,VALID,996.168,VALID,0,VALID,92.9669,VALID,0,VALID,24.0329,VALID,31,VALID,1.30156,
2012-02-26, 03:30:04,VALID,996.183,VALID,0,VALID,93.028,VALID,0,VALID,24.0329,VALID,30,VALID,1.21094,
2012-02-26, 03:31:04,VALID,996.156,VALID,0,VALID,92.8677,VALID,0,VALID,23.9726,VALID,30,VALID,0.965625,
2012-02-26, 03:32:04,VALID,996.179,VALID,0,VALID,92.7075,VALID,0,VALID,23.9354,VALID,30,VALID,0.737891,
2012-02-26, 03:33:04,VALID,996.19,VALID,0,VALID,92.7533,VALID,0,VALID,23.9159,VALID,30,VALID,0.632031,
2012-02-26, 03:34:04,VALID,996.211,VALID,0,VALID,92.8296,VALID,0,VALID,23.9159,VALID,30,VALID,0.617188,
2012-02-26, 03:35:04,VALID,996.238,VALID,0,VALID,92.9669,VALID,0,VALID,23.9159,VALID,30,VALID,0.804297,
2012-02-26, 03:36:04,VALID,996.23,VALID,0,VALID,93.1119,VALID,0,VALID,23.9159,VALID,30,VALID,0.990234,
2012-02-26, 03:37:04,VALID,996.216,VALID,0,VALID,93.1195,VALID,0,VALID,23.9159,VALID,30,VALID,0.925,
2012-02-26, 03:38:04,VALID,996.186,VALID,0,VALID,93.1424,VALID,0,VALID,23.8963,VALID,29,VALID,0.647656,
2012-02-26, 03:39:04,VALID,996.259,VALID,0,VALID,93.1424,VALID,0,VALID,23.8768,VALID,30,VALID,0.362891,
2012-02-26, 03:40:04,VALID,996.244,VALID,0,VALID,93.1805,VALID,0,VALID,23.8768,VALID,30,VALID,0.339453,
2012-02-26, 03:41:04,VALID,996.276,VALID,0,VALID,93.234,VALID,0,VALID,23.8963,VALID,30,VALID,0.342578,
2012-02-26, 03:42:04,VALID,996.3,VALID,0,VALID,93.295,VALID,0,VALID,23.8963,VALID,30,VALID,0.291406,
2012-02-26, 03:43:04,VALID,996.287,VALID,0,VALID,93.3179,VALID,0,VALID,23.8963,VALID,30,VALID,0.0121094,
2012-02-26, 03:44:04,VALID,996.298,VALID,0,VALID,93.2721,VALID,0,VALID,23.8963,VALID,30,VALID,0,
2012-02-26, 03:45:04,VALID,996.313,VALID,0,VALID,93.2492,VALID,0,VALID,23.8963,VALID,30,VALID,0,
2012-02-26, 03:46:04,VALID,996.31,VALID,0,VALID,93.2645,VALID,0,VALID,23.875,VALID,30,VALID,0,
2012-02-26, 03:47:04,VALID,996.367,VALID,0,VALID,93.2797,VALID,0,VALID,23.9159,VALID,30,VALID,0,
2012-02-26, 03:48:04,VALID,996.371,VALID,0,VALID,93.3026,VALID,0,VALID,23.9159,VALID,30,VALID,0.314453,
2012-02-26, 03:49:04,VALID,996.394,VALID,0,VALID,93.3484,VALID,0,VALID,23.914,VALID,43,VALID,0.608203,